GW3324 Weather Reports


Display with metric or nautical units.
time (UTC)temp
F
wind
direction
speed
MPH
gust
MPH
rain 1hr
in
rain 24hr
in
rain mn
in
humidity
%
barometer
mb
20260906093503 74 61 2.0 9.0 0.00 0.00 0.00 87 1013.3
20260906093011 74 96 5.0 8.0 0.00 0.00 0.00 87 1013.3
20260906092510 74 84 4.0 8.0 0.00 0.00 0.00 86 1013.3
20260906092011 74 32 2.0 6.0 0.00 0.00 0.00 86 1013.3
20260906091515 74 81 2.0 6.0 0.00 0.00 0.00 86 1013.2
20260906091011 74 64 1.0 4.0 0.00 0.00 0.00 86 1013.1
20260906090512 74 92 2.0 4.0 0.00 0.01 0.00 86 1013.2
20260906090025 74 98 1.0 3.0 0.00 0.01 0.00 86 1013.2
20260906085517 74 32 0.0 4.0 0.00 0.01 0.00 86 1013.1
20260906085014 74 56 1.0 8.0 0.00 0.01 0.00 86 1013.1
20260906084543 74 80 4.0 8.0 0.00 0.01 0.00 86 1013.2
20260906084017 74 68 0.0 4.0 0.00 0.01 0.00 86 1013.2
20260906083517 74 83 2.0 4.0 0.00 0.01 0.00 86 1013.0
20260906083035 74 84 1.0 3.0 0.00 0.01 0.00 86 1013.1
20260906082518 75 103 0.0 4.0 0.00 0.01 0.00 86 1013.2
20260906082008 75 78 1.0 4.0 0.00 0.01 0.00 86 1013.0
20260906081514 75 55 1.0 4.0 0.00 0.01 0.00 86 1013.1
20260906081007 75 71 1.0 4.0 0.00 0.11 0.00 86 1013.2
20260906080512 75 94 0.0 4.0 0.00 0.22 0.00 86 1013.1
20260906080004 75 46 1.0 4.0 0.00 0.22 0.00 86 1013.1
20260906075505 75 63 1.0 4.0 0.00 0.22 0.00 86 1013.1
20260906075003 75 72 1.0 3.0 0.00 0.22 0.00 86 1013.1
20260906074504 75 76 0.0 2.0 0.00 0.22 0.00 86 1013.1
20260906074003 75 80 0.0 2.0 0.00 0.22 0.00 86 1013.0
20260906073503 75 80 0.0 3.0 0.00 0.22 0.00 85 1013.1
20260906073004 75 81 0.0 4.0 0.00 0.22 0.00 85 1013.1
20260906072504 75 120 1.0 4.0 0.00 0.22 0.00 85 1013.1
20260906072005 75 85 2.0 4.0 0.00 0.22 0.00 85 1013.0
20260906071509 75 90 0.0 2.0 0.00 0.22 0.00 85 1013.1
20260906071007 76 81 0.0 5.0 0.00 0.22 0.00 85 1013.2
20260906070509 75 80 0.0 5.0 0.00 0.22 0.00 85 1013.4
20260906070013 76 70 0.0 3.0 0.00 0.22 0.00 84 1013.4
20260906065516 76 76 0.0 0.0 0.00 0.22 0.00 84 1013.3
20260906065011 76 76 0.0 0.0 0.00 0.22 0.00 84 1013.3
20260906064503 76 76 0.0 0.0 0.00 0.22 0.00 84 1013.2
20260906064003 76 76 0.0 4.0 0.00 0.22 0.00 84 1013.2
20260906063503 76 76 0.0 6.0 0.00 0.22 0.00 83 1013.1
20260906063004 76 98 3.0 6.0 0.00 0.22 0.00 83 1013.1
20260906062503 76 77 0.0 4.0 0.00 0.22 0.00 83 1013.3
20260906062004 77 74 0.0 3.0 0.00 0.22 0.00 83 1013.3
20260906061507 77 86 0.0 2.0 0.00 0.22 0.00 83 1013.4
20260906061007 77 85 0.0 2.0 0.00 0.22 0.00 83 1013.6
20260906060509 77 85 0.0 2.0 0.00 0.22 0.00 82 1013.5
20260906060011 77 74 1.0 3.0 0.00 0.22 0.00 82 1013.5
20260906055509 77 87 0.0 3.0 0.00 0.22 0.00 82 1013.4
20260906055012 77 89 0.0 4.0 0.00 0.22 0.00 82 1013.4
20260906054518 77 115 1.0 4.0 0.00 0.22 0.00 82 1013.4
20260906054014 77 103 0.0 3.0 0.00 0.22 0.00 82 1013.4
20260906053513 77 104 0.0 3.0 0.00 0.22 0.00 82 1013.4
20260906053003 77 71 0.0 2.0 0.00 0.22 0.00 82 1013.3
20260906052504 77 88 1.0 2.0 0.00 0.22 0.00 81 1013.2
20260906052004 77 97 0.0 2.0 0.00 0.22 0.00 81 1013.2
20260906051507 78 121 0.0 2.0 0.00 0.22 0.00 81 1013.2
20260906051004 78 78 1.0 2.0 0.00 0.22 0.00 80 1013.2
20260906050508 78 44 0.0 2.0 0.00 0.22 0.00 80 1013.1
20260906050010 78 88 0.0 3.0 0.00 0.22 0.00 80 1013.1
20260906045507 78 115 0.0 3.0 0.00 0.22 0.00 79 1013.1
20260906045010 78 95 1.0 3.0 0.00 0.22 0.00 79 1013.1
20260906044516 78 80 1.0 2.0 0.00 0.22 0.00 79 1013.1
20260906044009 79 95 1.0 2.0 0.00 0.22 0.00 78 1013.2
20260906043516 79 74 0.0 4.0 0.00 0.22 0.00 78 1013.1
20260906043029 79 117 1.0 4.0 0.00 0.22 0.00 78 1013.1
20260906042516 79 72 1.0 3.0 0.00 0.22 0.00 78 1013.1
20260906042016 79 86 2.0 3.0 0.00 0.22 0.00 78 1013.0
20260906041503 79 180 0.0 4.0 0.00 0.22 0.00 78 1013.0
20260906041006 79 96 1.0 4.0 0.00 0.22 0.00 78 1012.9
20260906040505 79 91 2.0 4.0 0.00 0.22 0.00 78 1013.0
20260906040009 79 71 0.0 3.0 0.00 0.22 0.00 77 1012.9
20260906035508 79 91 0.0 3.0 0.00 0.22 0.22 77 1013.0
20260906035008 79 78 1.0 2.0 0.00 0.22 0.22 77 1012.9
20260906034526 79 51 0.0 4.0 0.00 0.22 0.22 77 1012.9
20260906034007 79 48 0.0 8.0 0.00 0.22 0.22 77 1012.9
20260906033510 79 76 5.0 8.0 0.00 0.22 0.22 77 1012.8
20260906033026 79 26 0.0 2.0 0.00 0.22 0.22 77 1012.6
20260906032513 79 26 0.0 2.0 0.00 0.22 0.22 77 1012.5
20260906032015 79 26 0.0 0.0 0.00 0.22 0.22 77 1012.4
20260906031527 79 26 0.0 0.0 0.00 0.22 0.22 77 1012.4
20260906031017 79 26 0.0 0.0 0.00 0.22 0.22 76 1012.4
20260906030517 79 26 0.0 0.0 0.00 0.22 0.22 76 1012.4
20260906030030 79 26 0.0 0.0 0.00 0.22 0.22 75 1012.4
20260906025504 79 26 0.0 0.0 0.00 0.22 0.22 75 1012.5
20260906025006 79 26 0.0 0.0 0.00 0.22 0.22 75 1012.5
20260906024508 79 26 0.0 0.0 0.00 0.22 0.22 75 1012.5
20260906024008 79 26 0.0 0.0 0.00 0.22 0.22 74 1012.5
20260906023508 80 26 0.0 0.0 0.00 0.22 0.22 74 1012.6
20260906023016 80 26 0.0 0.0 0.00 0.22 0.22 73 1012.7
20260906022511 80 26 0.0 0.0 0.00 0.22 0.22 73 1012.6
20260906022014 80 26 0.0 0.0 0.00 0.22 0.22 72 1012.7
20260906021524 80 26 0.0 0.0 0.00 0.22 0.22 71 1012.5
20260906021014 81 61 0.0 0.0 0.00 0.22 0.22 71 1012.4
20260906020516 81 61 0.0 0.0 0.00 0.22 0.22 70 1012.2
20260906020027 81 61 0.0 1.0 0.00 0.22 0.22 70 1012.1
20260906015518 81 61 0.0 2.0 0.00 0.22 0.22 70 1012.1
20260906015018 81 61 0.0 3.0 0.00 0.22 0.22 70 1012.1
20260906014548 81 73 1.0 3.0 0.00 0.22 0.22 69 1012.1
20260906014011 81 86 0.0 2.0 0.00 0.22 0.22 69 1012.0
20260906013507 81 79 0.0 2.0 0.00 0.22 0.22 69 1011.9
20260906013016 82 79 0.0 0.0 0.00 0.22 0.22 68 1011.9
20260906012510 82 79 0.0 0.0 0.00 0.22 0.22 67 1011.7
20260906012011 82 79 0.0 1.0 0.00 0.22 0.22 66 1011.7
20260906011532 82 79 0.0 1.0 0.00 0.22 0.22 66 1011.6
20260906011013 83 79 0.0 2.0 0.00 0.22 0.22 67 1011.5
20260906010514 83 79 0.0 2.0 0.00 0.22 0.22 65 1011.6
20260906010026 83 191 0.0 2.0 0.00 0.22 0.22 65 1011.6
20260906005515 83 202 0.0 2.0 0.00 0.22 0.22 64 1011.7
20260906005021 84 206 0.0 1.0 0.00 0.22 0.22 64 1011.6
20260906004537 84 210 0.0 3.0 0.00 0.22 0.22 63 1011.6
20260906004015 84 210 0.0 3.0 0.00 0.22 0.22 63 1011.7
20260906003519 85 185 0.0 3.0 0.00 0.22 0.22 61 1011.8
20260906003047 85 181 1.0 3.0 0.00 0.22 0.22 61 1011.7
20260906002507 85 192 0.0 3.0 0.00 0.22 0.22 61 1011.7
20260906002010 85 215 0.0 3.0 0.00 0.22 0.22 61 1011.9
20260906001518 85 198 0.0 3.0 0.00 0.22 0.22 61 1011.9
20260906001011 86 202 0.0 3.0 0.00 0.22 0.22 61 1012.0
20260906000515 86 196 0.0 3.0 0.00 0.22 0.22 62 1012.0
20260906000024 86 207 1.0 3.0 0.00 0.22 0.22 61 1012.1
20260905235515 87 227 0.0 2.0 0.00 0.22 0.22 60 1012.1
20260905235017 87 198 0.0 3.0 0.00 0.22 0.22 60 1012.2
20260905234530 88 199 0.0 5.0 0.00 0.22 0.22 60 1012.3
20260905234014 89 230 1.0 6.0 0.00 0.22 0.22 57 1012.4
20260905233518 89 182 1.0 6.0 0.00 0.22 0.22 57 1012.4
20260905233032 90 234 3.0 6.0 0.00 0.22 0.22 57 1012.3
20260905232516 90 115 0.0 6.0 0.00 0.22 0.22 59 1012.1
20260905232017 91 88 2.0 6.0 0.00 0.22 0.22 58 1012.2
20260905231538 91 66 2.0 4.0 0.00 0.22 0.22 57 1012.2
20260905231011 91 123 0.0 7.0 0.00 0.22 0.22 55 1012.2
20260905230511 91 74 1.0 10.0 0.00 0.22 0.22 55 1012.1
20260905230022 92 42 3.0 10.0 0.00 0.22 0.22 54 1012.0
20260905225513 92 96 3.0 8.0 0.00 0.22 0.22 53 1011.9
20260905225005 92 74 1.0 4.0 0.00 0.22 0.22 54 1011.8
20260905224507 93 282 0.0 2.0 0.00 0.22 0.22 54 1011.8
20260905224003 93 248 0.0 3.0 0.00 0.22 0.22 53 1011.7
20260905223502 93 279 0.0 4.0 0.00 0.22 0.22 51 1011.6
20260905223005 93 272 1.0 6.0 0.00 0.22 0.22 50 1011.5
20260905222504 93 273 0.0 6.0 0.00 0.22 0.22 52 1011.5
20260905222007 93 32 0.0 4.0 0.00 0.22 0.22 51 1011.6
20260905221511 93 72 0.0 3.0 0.00 0.22 0.22 52 1011.7
20260905221008 93 293 0.0 4.0 0.00 0.22 0.22 52 1011.6
20260905220510 93 194 2.0 4.0 0.00 0.22 0.22 51 1011.6
20260905220021 93 290 0.0 4.0 0.00 0.22 0.22 51 1011.7
20260905215513 93 246 2.0 4.0 0.00 0.22 0.22 52 1011.7
20260905215010 93 69 0.0 3.0 0.00 0.22 0.22 51 1011.8
20260905214524 94 143 0.0 3.0 0.00 0.22 0.22 53 1011.8
20260905214014 94 306 1.0 7.0 0.00 0.22 0.22 50 1011.9
20260905213503 94 292 3.0 7.0 0.00 0.22 0.22 51 1012.0
20260905213005 94 304 2.0 7.0 0.00 0.22 0.22 52 1012.0
20260905212504 94 313 2.0 9.0 0.00 0.22 0.22 50 1012.0
20260905212003 94 290 3.0 9.0 0.00 0.22 0.22 50 1012.0
20260905211508 94 278 3.0 9.0 0.00 0.22 0.22 50 1011.9
20260905211011 94 78 0.0 4.0 0.00 0.22 0.22 48 1011.9
20260905210508 94 309 1.0 8.0 0.00 0.22 0.22 48 1012.0
20260905210015 95 287 2.0 9.0 0.00 0.22 0.22 48 1012.1
20260905205512 96 279 3.0 9.0 0.00 0.22 0.22 48 1012.1
20260905205013 96 252 3.0 7.0 0.00 0.22 0.22 46 1012.1
20260905204520 97 57 2.0 8.0 0.00 0.22 0.22 46 1012.2
20260905204013 96 302 1.0 8.0 0.00 0.22 0.22 48 1012.2
20260905203514 95 289 1.0 6.0 0.00 0.22 0.22 49 1012.2
20260905203025 96 110 2.0 6.0 0.00 0.22 0.22 47 1012.3
20260905202515 96 30 0.0 6.0 0.00 0.22 0.22 47 1012.4
20260905202003 96 82 1.0 9.0 0.00 0.22 0.22 45 1012.5
20260905201505 96 300 2.0 9.0 0.00 0.22 0.22 47 1012.6
20260905201003 96 265 4.0 9.0 0.00 0.22 0.22 46 1012.6
20260905200507 96 284 1.0 6.0 0.00 0.22 0.22 48 1012.7
20260905200013 95 130 1.0 6.0 0.00 0.22 0.22 48 1012.7
20260905195509 96 128 1.0 7.0 0.00 0.22 0.22 47 1012.7
20260905195009 96 304 2.0 7.0 0.00 0.22 0.22 46 1012.9
20260905194517 97 92 3.0 10.0 0.00 0.22 0.22 45 1012.9
20260905194011 97 301 3.0 10.0 0.00 0.22 0.22 45 1013.1
20260905193516 96 282 2.0 7.0 0.00 0.22 0.22 46 1013.1
20260905193020 96 284 2.0 7.0 0.00 0.22 0.22 46 1013.2
20260905192518 96 97 2.0 5.0 0.00 0.22 0.22 47 1013.3
20260905192015 96 252 3.0 5.0 0.00 0.22 0.22 46 1013.2
20260905191529 95 344 2.0 4.0 0.00 0.22 0.22 49 1013.3
20260905191017 95 200 0.0 3.0 0.00 0.22 0.22 47 1013.4
20260905190517 95 215 0.0 6.0 0.00 0.22 0.22 47 1013.5
20260905190010 95 29 0.0 7.0 0.00 0.22 0.22 47 1013.6
20260905185507 95 263 2.0 7.0 0.00 0.22 0.22 48 1013.6
20260905185009 94 301 3.0 7.0 0.00 0.22 0.22 47 1013.7
20260905184513 94 182 3.0 7.0 0.00 0.22 0.22 50 1013.7
20260905184010 93 152 1.0 7.0 0.00 0.22 0.22 47 1013.7
20260905183512 93 277 3.0 7.0 0.00 0.22 0.22 49 1013.7
20260905183019 93 225 2.0 6.0 0.00 0.22 0.22 49 1014.0
20260905182514 94 138 1.0 6.0 0.00 0.22 0.22 48 1014.0
20260905182012 93 277 2.0 6.0 0.00 0.22 0.22 50 1014.1
20260905181534 93 248 0.0 6.0 0.00 0.22 0.22 51 1014.2
20260905181015 93 211 3.0 6.0 0.00 0.22 0.22 54 1014.2
20260905180516 92 115 2.0 4.0 0.00 0.22 0.22 52 1014.2
20260905180028 93 202 2.0 6.0 0.00 0.22 0.22 50 1014.3
20260905175519 92 31 2.0 6.0 0.00 0.22 0.22 51 1014.3
20260905175018 92 285 0.0 4.0 0.00 0.22 0.22 50 1014.4
20260905174512 91 228 1.0 4.0 0.00 0.22 0.22 54 1014.4
20260905174006 91 280 1.0 8.0 0.00 0.22 0.22 50 1014.4
20260905173509 91 211 2.0 8.0 0.00 0.22 0.22 56 1014.4
20260905173016 90 198 1.0 8.0 0.00 0.22 0.22 54 1014.5
20260905172512 90 111 2.0 8.0 0.00 0.22 0.22 54 1014.5
20260905172016 90 277 3.0 7.0 0.00 0.22 0.22 57 1014.4
20260905171526 89 96 4.0 7.0 0.00 0.22 0.22 54 1014.5
20260905171014 89 81 1.0 6.0 0.00 0.22 0.22 56 1014.5
20260905170515 89 26 1.0 5.0 0.00 0.22 0.22 55 1014.6
20260905170027 88 288 2.0 5.0 0.00 0.22 0.22 56 1014.8
20260905165520 88 292 1.0 7.0 0.00 0.22 0.22 56 1014.9
20260905165016 88 81 3.0 8.0 0.00 0.22 0.22 55 1015.1
20260905164532 89 75 2.0 8.0 0.00 0.22 0.22 57 1015.3
20260905164018 89 328 0.0 5.0 0.00 0.22 0.22 58 1015.4
20260905163519 88 232 1.0 5.0 0.00 0.22 0.22 58 1015.3
20260905163035 88 233 1.0 4.0 0.00 0.22 0.22 62 1015.4
20260905162511 87 211 1.0 6.0 0.00 0.22 0.22 58 1015.4
20260905162011 87 37 1.0 6.0 0.00 0.22 0.22 58 1015.3
20260905161520 87 138 1.0 5.0 0.00 0.22 0.22 61 1015.3
20260905161014 86 301 1.0 5.0 0.00 0.22 0.22 60 1015.2
20260905160515 86 86 0.0 6.0 0.00 0.22 0.22 62 1015.2
20260905160039 85 228 3.0 6.0 0.00 0.22 0.22 62 1015.3
20260905155517 85 146 2.0 6.0 0.00 0.22 0.22 63 1015.3
20260905155014 85 119 1.0 8.0 0.00 0.22 0.22 64 1015.3
20260905154530 84 155 1.0 8.0 0.00 0.22 0.22 63 1015.4
20260905154018 84 178 3.0 6.0 0.00 0.22 0.22 66 1015.5
20260905153517 83 206 2.0 6.0 0.00 0.22 0.22 67 1015.6
20260905153038 83 339 1.0 5.0 0.00 0.22 0.22 67 1015.4
20260905152519 82 63 2.0 6.0 0.00 0.22 0.22 68 1015.3
20260905152019 82 71 1.0 7.0 0.00 0.22 0.22 70 1015.3
20260905151533 81 176 2.0 7.0 0.00 0.22 0.22 73 1015.4
20260905151013 81 41 1.0 5.0 0.00 0.22 0.22 70 1015.3
20260905150510 80 54 0.0 9.0 0.00 0.22 0.22 72 1015.3
20260905150023 80 74 3.0 9.0 0.00 0.22 0.22 72 1015.5
20260905145516 79 83 1.0 8.0 0.00 0.22 0.22 75 1015.6
20260905145016 79 204 2.0 8.0 0.00 0.22 0.22 76 1015.7
20260905144534 79 69 1.0 10.0 0.00 0.22 0.22 76 1015.7
20260905144016 78 69 2.0 10.0 0.00 0.22 0.22 75 1015.8
20260905143516 78 209 2.0 10.0 0.00 0.22 0.22 76 1015.8
20260905143047 78 88 3.0 10.0 0.00 0.22 0.22 76 1015.8
20260905142517 77 76 1.0 9.0 0.00 0.22 0.22 78 1015.7
20260905142018 77 94 2.0 9.0 0.00 0.22 0.22 78 1015.8
20260905141534 77 100 3.0 9.0 0.00 0.22 0.22 78 1015.8
20260905141017 76 66 2.0 13.0 0.00 0.22 0.22 82 1015.8
20260905140504 76 51 4.0 13.0 0.00 0.22 0.22 80 1015.8
20260905140003 76 101 7.0 13.0 0.00 0.22 0.22 80 1015.9
20260905135504 76 87 3.0 9.0 0.00 0.22 0.22 81 1016.1
20260905135004 76 72 3.0 9.0 0.00 0.22 0.22 81 1016.3
20260905134503 77 77 4.0 8.0 0.00 0.22 0.22 82 1016.1
20260905134003 76 102 4.0 9.0 0.00 0.22 0.22 84 1016.2
20260905133503 76 67 5.0 12.0 0.00 0.22 0.22 83 1016.4
20260905133004 76 67 3.0 12.0 0.00 0.22 0.22 84 1016.3
20260905132503 75 90 7.0 12.0 0.00 0.22 0.22 85 1016.3
20260905132003 75 74 6.0 17.0 0.00 0.22 0.22 85 1016.3
20260905131504 75 60 4.0 17.0 0.00 0.22 0.22 87 1016.2
20260905131004 74 70 6.0 14.0 0.00 0.22 0.22 88 1016.2
20260905130504 74 84 7.0 13.0 0.00 0.22 0.22 88 1016.1
20260905130003 74 83 6.0 12.0 0.00 0.22 0.22 89 1016.2
20260905125505 74 97 6.0 12.0 0.00 0.22 0.22 89 1016.4
20260905125003 74 87 3.0 11.0 0.00 0.22 0.22 89 1016.6
20260905124505 74 114 4.0 12.0 0.00 0.22 0.22 89 1016.5
20260905124003 74 109 3.0 12.0 0.00 0.22 0.22 89 1016.5
20260905123503 73 93 4.0 12.0 0.00 0.22 0.22 90 1016.3
20260905123004 73 76 5.0 12.0 0.00 0.22 0.22 90 1016.2
20260905122506 73 71 4.0 9.0 0.00 0.22 0.22 91 1015.6
20260905122004 73 214 0.0 3.0 0.00 0.22 0.22 91 1015.5
20260905121504 73 205 0.0 2.0 0.00 0.22 0.22 91 1015.4
20260905121005 73 286 0.0 2.0 0.00 0.22 0.22 91 1015.4
20260905120503 73 300 0.0 3.0 0.00 0.22 0.22 91 1015.3
20260905120004 73 19 0.0 9.0 0.00 0.22 0.22 91 1015.3
20260905115504 73 130 0.0 9.0 0.00 0.22 0.22 91 1015.3
20260905115004 73 70 1.0 6.0 0.00 0.22 0.22 92 1015.3
20260905114506 73 86 2.0 7.0 0.00 0.22 0.22 91 1015.4
20260905114003 73 67 1.0 8.0 0.00 0.22 0.22 91 1015.3
20260905113504 73 80 3.0 8.0 0.00 0.22 0.22 91 1015.3
20260905113004 73 90 2.0 6.0 0.00 0.22 0.22 91 1015.0
20260905112504 73 58 3.0 6.0 0.00 0.22 0.22 91 1014.7
20260905112003 74 94 1.0 5.0 0.00 0.22 0.22 91 1014.7
20260905111504 74 69 0.0 9.0 0.00 0.22 0.22 91 1014.7
20260905111004 74 71 3.0 9.0 0.00 0.22 0.22 91 1014.9
20260905110503 74 71 1.0 6.0 0.00 0.22 0.22 92 1014.8
20260905110004 74 75 2.0 6.0 0.00 0.22 0.22 92 1014.9
20260905105506 74 192 1.0 6.0 0.00 0.22 0.22 92 1014.8
20260905105005 74 94 2.0 8.0 0.00 0.22 0.22 92 1014.9
20260905104510 74 80 3.0 10.0 0.00 0.22 0.22 93 1014.9
20260905104005 75 121 5.0 10.0 0.00 0.22 0.22 93 1014.5
20260905103503 75 71 1.0 3.0 0.00 0.22 0.22 94 1014.1
20260905103013 75 132 0.0 1.0 0.00 0.22 0.22 94 1014.0
20260905102503 75 132 0.0 1.0 0.00 0.22 0.22 94 1013.9
20260905102004 75 132 0.0 1.0 0.00 0.22 0.22 93 1013.8
20260905101505 75 123 0.0 1.0 0.00 0.22 0.22 93 1013.8
20260905101003 75 119 0.0 1.0 0.00 0.22 0.22 93 1014.0
20260905100506 75 119 0.0 1.0 0.01 0.22 0.22 93 1014.0
20260905100017 75 119 0.0 1.0 0.01 0.22 0.22 93 1014.0
20260905095506 75 119 0.0 1.0 0.01 0.22 0.22 93 1014.1
20260905095006 75 119 0.0 2.0 0.01 0.22 0.22 93 1014.2
20260905094511 75 119 0.0 2.0 0.01 0.22 0.22 93 1014.1
20260905094005 75 201 0.0 1.0 0.01 0.22 0.22 93 1014.0